Date String (YYYY-MM-DD hh:mm:ss) UTC,Instrument flags,absolute air pressure of the measurement (hPa),sample flow rate (lpm),inlet stack bypass flow (lpm),air temperature of the measurement (°C),ambient temperature measured by the external sensor (°C),aerosol sample conditioner tube jacket temperature (°C),OPC LED temperature (°C),internal box temperature (°C),relative humidity of the measurement (%),span deviation,mass concentration of particles derived from Lorenz-Mie calculation of OPC scattering (μg/m³),mass concentration of particles derived from Lorenz-Mie calculation of OPC scattering (μg/m³),mass concentration of particles derived from Lorenz-Mie calculation of OPC scattering (μg/m³)
DateTimeUTC,F1_M11,P_M11,Q1_M11,Q2_M11,T1_M11,T2_M11,T3_M11,T4_M11,T5_M11,U1_M11,ZSPAN_M11,X0_M11,X2_M11,X1_M11
2024-02-01 16:00:00,SystemResetWarning,0825.0,5.00,000.00,024.3,023.7,000.0,032.4,026.0,10.9,0007.6,0019.73,0007.69,0006.67
2024-02-01 16:01:00,SystemResetWarning,0825.0,5.00,000.00,024.3,023.8,000.0,032.5,026.0,10.9,0008.0,0019.61,0007.69,0006.66
2024-02-01 16:02:00,SystemResetWarning,0825.0,5.01,000.00,024.3,023.8,000.0,032.5,026.1,10.9,0008.5,0019.99,0007.71,0006.68
2024-02-01 16:03:00,SystemResetWarning,0825.0,5.00,000.00,024.3,023.8,000.0,032.5,026.1,10.9,0008.8,0020.20,0007.71,0006.68
2024-02-01 16:04:00,SystemResetWarning,0825.1,5.00,000.00,024.3,023.8,000.0,032.5,026.1,10.8,0008.6,0021.66,0007.70,0006.67
2024-02-01 16:05:00,SystemResetWarning,0825.1,5.00,000.00,024.3,023.8,000.0,032.5,026.1,11.1,0008.0,0022.71,0007.67,0006.65
2024-02-01 16:06:00,SystemResetWarning,0825.1,5.00,000.00,024.4,023.8,000.0,032.5,026.1,10.9,0007.7,0023.52,0007.70,0006.65
2024-02-01 16:07:00,SystemResetWarning,0825.1,5.00,000.00,024.4,023.9,000.0,032.5,026.1,10.9,0007.1,0023.99,0007.74,0006.66
2024-02-01 16:08:00,SystemResetWarning,0825.1,5.00,000.00,024.4,023.9,000.0,032.6,026.2,10.9,0007.1,0023.90,0007.76,0006.69
2024-02-01 16:09:00,SystemResetWarning,0825.1,4.99,000.00,024.4,023.9,000.0,032.6,026.2,11.0,0007.3,0023.08,0007.76,0006.73
2024-02-01 16:10:00,SystemResetWarning,0825.1,4.99,000.00,024.4,023.9,000.0,032.6,026.2,11.2,0007.3,0022.29,0007.76,0006.75
2024-02-01 16:11:00,SystemResetWarning,0825.1,5.00,000.00,024.4,023.9,000.0,032.6,026.2,11.3,0006.7,0020.52,0007.75,0006.76
2024-02-01 16:12:00,SystemResetWarning,0825.1,5.01,000.00,024.4,023.9,000.0,032.6,026.2,11.1,0006.1,0019.64,0007.74,0006.77
2024-02-01 16:13:00,SystemResetWarning,0825.1,5.00,000.00,024.4,024.0,000.0,032.6,026.2,11.0,0006.1,0018.50,0007.75,0006.77
2024-02-01 16:14:00,SystemResetWarning,0825.1,5.00,000.00,024.5,024.0,000.0,032.6,026.2,10.9,0005.9,0018.17,0007.75,0006.79
2024-02-01 16:15:00,SystemResetWarning,0825.1,5.00,000.00,024.5,024.0,000.0,032.7,026.2,10.9,0005.7,0016.31,0007.78,0006.83
2024-02-01 16:16:00,SystemResetWarning,0825.0,5.00,000.00,024.5,024.0,000.0,032.7,026.3,11.3,0005.8,0015.45,0007.80,0006.84
2024-02-01 16:17:00,SystemResetWarning,0825.1,5.00,000.00,024.5,024.0,000.0,032.7,026.3,11.2,0005.8,0015.10,0007.82,0006.85
2024-02-01 16:18:00,SystemResetWarning,0825.1,5.00,000.00,024.5,024.0,000.0,032.7,026.3,11.3,0005.9,0014.35,0007.79,0006.84
2024-02-01 16:19:00,SystemResetWarning,0825.1,5.00,000.00,024.5,024.0,000.0,032.7,026.3,11.4,0005.6,0014.86,0007.76,0006.82
2024-02-01 16:20:00,SystemResetWarning,0825.1,5.01,000.00,024.5,024.0,000.0,032.7,026.3,11.3,0005.5,0015.45,0007.80,0006.79
2024-02-01 16:21:00,SystemResetWarning,0825.1,5.00,000.00,024.6,024.1,000.0,032.7,026.3,11.4,0005.2,0016.27,0007.84,0006.80
2024-02-01 16:22:00,SystemResetWarning,0825.1,5.00,000.00,024.6,024.1,000.0,032.8,026.3,11.3,0005.7,0016.49,0007.84,0006.80
2024-02-01 16:23:00,SystemResetWarning,0825.1,5.00,000.00,024.6,024.1,000.0,032.8,026.3,11.4,0005.5,0017.03,0007.80,0006.80
2024-02-01 16:24:00,SystemResetWarning,0825.1,5.00,000.00,024.6,024.1,000.0,032.8,026.4,11.3,0005.3,0017.28,0007.76,0006.77
2024-02-01 16:25:00,SystemResetWarning,0825.1,4.99,000.00,024.6,024.1,000.0,032.8,026.4,11.4,0004.7,0017.36,0007.77,0006.76
2024-02-01 16:26:00,SystemResetWarning,0825.0,5.00,000.00,024.7,024.2,000.0,032.8,026.4,11.2,0004.3,0017.53,0007.71,0006.73
2024-02-01 16:27:00,SystemResetWarning,0825.0,5.00,000.00,024.7,024.2,000.0,032.8,026.5,11.3,0003.7,0016.96,0007.66,0006.69
2024-02-01 16:28:00,SystemResetWarning,0825.0,5.00,000.00,024.7,024.2,000.0,032.8,026.5,11.6,0001.0,0017.34,0007.59,0006.66
2024-02-01 16:29:00,SystemResetWarning,0825.0,5.00,000.00,024.7,024.2,000.0,032.9,026.5,11.5,0003.7,0018.37,0007.56,0006.63
2024-02-01 16:30:00,SystemResetWarning,0825.1,5.00,000.00,024.7,024.2,000.0,032.9,026.5,11.4,0004.7,0018.20,0007.54,0006.60
2024-02-01 16:31:00,SystemResetWarning,0825.1,5.00,000.00,024.7,024.3,000.0,032.9,026.5,11.6,0004.7,0018.65,0007.44,0006.54
2024-02-01 16:32:00,SystemResetWarning,0825.0,5.00,000.00,024.8,024.3,000.0,032.9,026.6,11.8,0004.9,0019.00,0007.41,0006.50
2024-02-01 16:33:00,SystemResetWarning,0825.0,5.00,000.00,024.8,024.3,000.0,032.9,026.6,11.7,0004.8,0019.02,0007.40,0006.47
2024-02-01 16:34:00,SystemResetWarning,0825.1,4.99,000.00,024.8,024.3,000.0,032.9,026.6,11.6,0005.2,0019.07,0007.42,0006.43
2024-02-01 16:35:00,SystemResetWarning,0825.1,5.00,000.00,024.8,024.3,000.0,033.0,026.6,11.6,0005.3,0020.14,0007.38,0006.39
2024-02-01 16:36:00,SystemResetWarning,0825.1,5.00,000.00,024.8,024.4,000.0,033.0,026.6,11.4,0005.4,0020.82,0007.35,0006.35
2024-02-01 16:37:00,SystemResetWarning,0825.0,5.00,000.00,024.9,024.4,000.0,033.0,026.6,11.4,0005.7,0020.44,0007.32,0006.32
2024-02-01 16:38:00,SystemResetWarning,0825.0,5.00,000.00,024.9,024.4,000.0,033.0,026.7,11.3,0005.8,0020.61,0007.35,0006.30
2024-02-01 16:39:00,SystemResetWarning,0825.0,5.00,000.00,024.9,024.4,000.0,033.0,026.7,11.3,0005.6,0019.93,0007.36,0006.28
2024-02-01 16:40:00,SystemResetWarning,0825.1,5.00,000.00,024.9,024.4,000.0,033.0,026.7,11.2,0004.6,0018.89,0007.33,0006.26
2024-02-01 16:41:00,SystemResetWarning,0825.1,5.01,000.00,024.9,024.5,000.0,033.1,026.7,11.2,0000.0,0019.35,0007.25,0006.23
2024-02-01 16:42:00,SystemResetWarning,0825.1,5.00,000.00,025.0,024.5,000.0,033.1,026.7,11.2,0000.0,0018.37,0007.21,0006.21
2024-02-01 16:43:00,SystemResetWarning,0825.1,4.99,000.00,025.0,024.5,000.0,033.1,026.8,11.2,0000.0,0018.11,0007.16,0006.18
2024-02-01 16:44:00,SystemResetWarning,0825.1,5.00,000.00,025.0,024.5,000.0,033.1,026.8,11.3,0000.0,0017.87,0007.08,0006.11
2024-02-01 16:45:00,SystemResetWarning,0825.1,5.02,000.00,025.0,024.5,000.0,033.1,026.8,11.2,0000.0,0017.53,0006.93,0006.03
2024-02-01 16:46:00,SystemResetWarning,0825.1,5.00,000.00,025.0,024.6,000.0,033.2,026.8,11.2,0000.0,0017.16,0006.84,0005.97
2024-02-01 16:47:00,SystemResetWarning,0825.1,4.99,000.00,025.0,024.6,000.0,033.2,026.8,11.2,0000.0,0016.14,0006.77,0005.92
2024-02-01 16:48:00,SystemResetWarning,0825.1,4.99,000.00,025.1,024.6,000.0,033.2,026.8,11.0,0000.0,0015.59,0006.74,0005.86
2024-02-01 16:49:00,SystemResetWarning,0825.1,4.99,000.00,025.1,024.6,000.0,033.2,026.9,11.0,0000.0,0015.87,0006.63,0005.81
2024-02-01 16:50:00,SystemResetWarning,0825.1,5.00,000.00,025.1,024.6,000.0,033.2,026.9,10.9,0000.0,0016.27,0006.56,0005.76
2024-02-01 16:51:00,SystemResetWarning,0825.1,4.99,000.00,025.1,024.6,000.0,033.2,026.9,10.9,0000.0,0015.97,0006.46,0005.69
2024-02-01 16:52:00,SystemResetWarning,0825.1,5.00,000.00,025.1,024.6,000.0,033.2,026.9,10.9,0000.0,0014.70,0006.35,0005.60
2024-02-01 16:53:00,SystemResetWarning,0825.1,5.00,000.00,025.1,024.6,000.0,033.3,026.9,11.1,0000.0,0014.25,0006.26,0005.52
2024-02-01 16:54:00,SystemResetWarning,0825.1,5.00,000.00,025.1,024.6,000.0,033.3,026.9,11.1,0000.0,0013.23,0006.22,0005.52
2024-02-01 16:55:00,SystemResetWarning,0825.1,5.00,000.00,025.2,024.6,000.0,033.3,026.9,11.1,0000.0,0013.56,0006.27,0005.61
2024-02-01 16:56:00,SystemResetWarning,0825.1,5.00,000.00,025.2,024.6,000.0,033.3,026.9,11.0,0000.0,0013.51,0006.35,0005.69
2024-02-01 16:57:00,SystemResetWarning,0825.1,5.00,000.00,025.2,024.7,000.0,033.3,026.9,11.0,0000.0,0012.87,0006.48,0005.79
2024-02-01 16:58:00,SystemResetWarning,0825.1,5.00,000.00,025.2,024.7,000.0,033.3,027.0,11.1,0000.0,0012.84,0006.53,0005.87
2024-02-01 16:59:00,SystemResetWarning,0825.1,4.99,000.00,025.2,024.7,000.0,033.3,026.9,11.0,0000.0,0013.40,0006.55,0005.91
